This demonstration page uses our WeatherBlox Daily Observations layout. Learn more.

Left ArrowRight Arrow

53.62937, 11.41316

Hourly Observations for March 6, 2018

Temp ( °F °C ) Dew Point ( °F °C ) Humidity (%) Winds ( mph kmh ) Pressure ( in mb ) Visibility ( mi km ) Precip ( " mm )
6:20 am 06:20 Mostly Clear with Patchy Fog 27 -3 27 -3 100 100 ENE 3 6 29.38 995 2 3 N/A
6:50 am 06:50 Mostly Clear with Patchy Fog 28 -2 28 -2 100 100 ENE 5 7 29.38 995 1 1 N/A
7:20 am 07:20 Partly Cloudy with Patchy Fog 23 -5 23 -5 100 100 ENE 2 4 29.38 995 1 2 N/A
7:50 am 07:50 Partly Cloudy with Patchy Fog 25 -4 25 -4 100 100 E 3 6 29.38 995 1 2 N/A
8:20 am 08:20 Partly Cloudy with Mist and Fog 30 -1 30 -1 100 100 E 3 6 29.38 995 2 3 N/A
8:50 am 08:50 Partly Cloudy with Mist and Fog 30 -1 28 -2 93 93 E 5 7 29.38 995 3 4 N/A
9:20 am 09:20 Partly Cloudy with Mist and Fog 36 2 30 -1 81 81 ESE 3 6 29.38 995 3 5 N/A
9:50 am 09:50 Mostly Sunny 37 3 30 -1 75 75 ESE 5 7 29.38 995 4 6 N/A
10:20 am 10:20 Mostly Sunny 39 4 28 -2 65 65 ESE 7 11 29.38 995 5 8 N/A
10:50 am 10:50 Mostly Sunny 39 4 30 -1 70 70 SE 6 9 29.38 995 6 9 N/A
11:20 am 11:20 Mostly Sunny 41 5 28 -2 61 61 ESE 9 15 29.38 995 6 9 N/A
11:50 am 11:50 Mostly Sunny 41 5 30 -1 66 66 ESE 6 9 29.38 995 7 11 N/A
12:20 pm 12:20 Mostly Sunny 43 6 30 -1 61 61 E 8 13 29.35 994 7 11 N/A
12:50 pm 12:50 Mostly Sunny 41 5 30 -1 66 66 E 9 15 29.35 994 6 9 N/A
1:20 pm 13:20 Mostly Sunny 43 6 30 -1 61 61 E 8 13 29.35 994 7 11 N/A
1:50 pm 13:50 Mostly Sunny 43 6 30 -1 61 61 E 7 11 29.35 994 6 9 N/A
2:20 pm 14:20 Mostly Sunny 43 6 30 -1 61 61 ESE 7 11 29.35 994 6 9 N/A
2:50 pm 14:50 Mostly Sunny 43 6 30 -1 61 61 E 6 9 29.32 993 6 9 N/A
3:20 pm 15:20 Mostly Sunny 43 6 30 -1 61 61 E 7 11 29.32 993 6 9 N/A
3:50 pm 15:50 Mostly Sunny 43 6 30 -1 61 61 E 7 11 29.32 993 6 9 N/A
4:20 pm 16:20 Mostly Sunny 43 6 30 -1 61 61 E 7 11 29.32 993 6 9 N/A
4:50 pm 16:50 Mostly Sunny 39 4 32 0 75 75 NE 7 11 29.32 993 5 8 N/A
5:20 pm 17:20 Mostly Sunny 39 4 32 0 75 75 NE 8 13 29.32 993 4 7 N/A
5:50 pm 17:50 Mostly Sunny 37 3 32 0 81 81 NE 5 7 29.32 993 4 7 N/A
6:20 pm 18:20 Mostly Clear 36 2 32 0 87 87 NE 5 7 29.32 993 4 6 N/A

Powered by AerisWeather